Presque Isle, ME

5:17 AM EDT on May 26, 2017 (GMT -0400)
Northern Maine Regional At Presque Isle

Weather History for KPQI - February, 2013

Change the Weather History Date:

Monday, February 4, 2013

  Actual Average Record
Temperature  
Mean Temperature 16 °F -  
Max Temperature 21 °F 23 °F 50 °F (1970)
Min Temperature 10 °F 1 °F -27 °F (1971)
Degree Days  
Heating Degree Days 50    
Moisture  
Dew Point 6 °F    
Average Humidity 70    
Maximum Humidity 86    
Minimum Humidity 46    
Precipitation  
Precipitation 0.00 in - - ()
Sea Level Pressure  
Sea Level Pressure 29.43 in    
Wind  
Wind Speed 12 mph (WNW)    
Max Wind Speed 26 mph    
Max Gust Speed 38 mph    
Visibility 6 miles    
Events      
Averages and records for this station are not official NWS values.
T = Trace of Precipitation, MM = Missing Value Source: NWS Daily Summary

Daily Weather History Graph

Daily Weather History Graph

Search for Another Location

Airport or City:

Trip Planner

Search our weather history database for the weather conditions in past years. The results will help you decide how hot, cold, wet, or windy it might be!

Date:

Astronomy

Feb. 04, 2013 Rise Set
Actual Time 6:52 AM EST 4:40 PM EST
Civil Twilight 6:20 AM EST 5:12 PM EST
Nautical Twilight 5:43 AM EST 5:48 PM EST
Astronomical Twilight 5:08 AM EST 6:24 PM EST
Moon 1:28 AM EST (2/4) 10:56 AM EST (2/4)
Length of Visible Light 10h 52m
Length of Day
9h 48m
Last Quarter, 37% of the Moon is Illuminated
Feb 4
Last Quarter
Feb 10
New
Feb 17
First Quarter
Feb 25
Full
Mar 4
Last Quarter

Hourly Weather History & Observations

Time (EST) Temp. Windchill Dew Point Humidity Pressure Visibility Wind Dir Wind Speed Gust Speed Precip Events Conditions
12:15 AM 12.2 °F -1.8 °F 8.6 °F 85% 29.60 in 4.0 mi NNW 11.5 mph - N/A   Overcast
12:35 AM 12.2 °F -0.2 °F 6.8 °F 79% 29.60 in 5.0 mi NNW 9.2 mph - N/A   Overcast
12:55 AM 12.2 °F 0.7 °F 6.8 °F 79% 29.59 in 6.0 mi NNW 8.1 mph - N/A   Overcast
1:15 AM 12.2 °F 0.7 °F 6.8 °F 79% 29.58 in 5.0 mi NNW 8.1 mph - N/A   Overcast
1:35 AM 12.2 °F -0.2 °F 6.8 °F 79% 29.57 in 4.0 mi NNW 9.2 mph - N/A   Overcast
1:55 AM 12.2 °F -0.2 °F 6.8 °F 79% 29.57 in 4.0 mi NNW 9.2 mph - N/A   Overcast
2:15 AM 12.2 °F 0.7 °F 6.8 °F 79% 29.56 in 4.0 mi NNW 8.1 mph - N/A   Overcast
2:35 AM 12.2 °F 0.7 °F 8.6 °F 85% 29.56 in 4.0 mi NNW 8.1 mph - N/A   Overcast
2:55 AM 12.2 °F 0.7 °F 6.8 °F 79% 29.55 in 3.0 mi NNW 8.1 mph - N/A   Overcast
3:15 AM 12.2 °F 0.7 °F 8.6 °F 85% 29.53 in 3.0 mi NNW 8.1 mph - N/A   Overcast
3:35 AM 12.2 °F 0.7 °F 8.6 °F 85% 29.52 in 4.0 mi NW 8.1 mph - N/A   Overcast
3:55 AM 12.2 °F 0.7 °F 6.8 °F 79% 29.52 in 4.0 mi NNW 8.1 mph - N/A   Overcast
4:15 AM 12.2 °F 1.7 °F 6.8 °F 79% 29.51 in 4.0 mi NNW 6.9 mph - N/A   Overcast
6:15 AM 12.2 °F 0.7 °F 6.8 °F 79% 29.45 in 10.0 mi NNW 8.1 mph - N/A   Overcast
6:35 AM 12.2 °F 2.9 °F 8.6 °F 85% 29.45 in 9.0 mi NW 5.8 mph - N/A   Overcast
6:55 AM 12.2 °F -0.2 °F 8.6 °F 85% 29.44 in 10.0 mi NW 9.2 mph - N/A   Overcast
7:15 AM 12.2 °F -0.2 °F 6.8 °F 79% 29.44 in 10.0 mi WNW 9.2 mph - N/A   Overcast
7:35 AM 12.2 °F 0.7 °F 6.8 °F 79% 29.44 in 8.0 mi WNW 8.1 mph - N/A   Overcast
7:55 AM 12.2 °F -1.8 °F 6.8 °F 79% 29.42 in 5.0 mi WNW 11.5 mph - N/A   Overcast
8:15 AM 12.2 °F -1.8 °F 8.6 °F 85% 29.42 in 3.0 mi WNW 11.5 mph - N/A   Overcast
8:35 AM 12.2 °F -1.8 °F 6.8 °F 79% 29.41 in 3.0 mi WNW 11.5 mph 18.4 mph N/A   Overcast
8:55 AM 14.0 °F 2.0 °F 6.8 °F 73% 29.40 in 2.5 mi WNW 9.2 mph 20.7 mph N/A   Overcast
9:15 AM 14.0 °F -1.4 °F 10.4 °F 86% 29.39 in 3.0 mi WNW 15.0 mph 19.6 mph N/A   Overcast
9:35 AM 15.8 °F 0.9 °F 8.6 °F 73% 29.38 in 4.0 mi WNW 15.0 mph 23.0 mph N/A   Overcast
9:55 AM 15.8 °F 1.4 °F 8.6 °F 73% 29.37 in 3.0 mi NW 13.8 mph - N/A   Overcast
10:15 AM 17.6 °F 3.2 °F 10.4 °F 73% 29.37 in 3.0 mi WNW 15.0 mph 23.0 mph N/A   Overcast
10:35 AM 17.6 °F 2.2 °F 10.4 °F 73% 29.37 in 5.0 mi WNW 17.3 mph 21.9 mph N/A   Overcast
11:15 AM 19.4 °F 5.5 °F 10.4 °F 68% 29.35 in 10.0 mi NW 15.0 mph 21.9 mph N/A   Overcast
11:35 AM - - - N/A% 29.34 in 5.0 mi WNW 21.9 mph 27.6 mph N/A   Mostly Cloudy
11:55 AM 19.4 °F 5.5 °F 6.8 °F 58% 29.33 in 8.0 mi WNW 15.0 mph 27.6 mph N/A   Mostly Cloudy
12:15 PM 19.4 °F 5.0 °F 6.8 °F 58% 29.33 in 4.0 mi WNW 16.1 mph 28.8 mph N/A   Overcast
12:35 PM 21.2 °F 6.4 °F 5.0 °F 50% 29.33 in 9.0 mi WNW 18.4 mph 27.6 mph N/A   Overcast
12:55 PM 21.2 °F 6.8 °F 3.2 °F 46% 29.33 in 10.0 mi West 17.3 mph 27.6 mph N/A   Mostly Cloudy
1:15 PM 21.2 °F 6.8 °F 3.2 °F 46% 29.32 in 6.0 mi WNW 17.3 mph 28.8 mph N/A   Mostly Cloudy
1:35 PM 21.2 °F 7.3 °F 3.2 °F 46% 29.32 in 10.0 mi WNW 16.1 mph 26.5 mph N/A   Overcast
1:55 PM 21.2 °F 3.9 °F 5.0 °F 50% 29.33 in 2.5 mi West 26.5 mph 38.0 mph N/A   Overcast
2:15 PM 19.4 °F 5.0 °F 3.2 °F 49% 29.34 in 5.0 mi West 16.1 mph 29.9 mph N/A   Mostly Cloudy
2:35 PM 17.6 °F 0.9 °F 6.8 °F 63% 29.34 in 5.0 mi West 20.7 mph 31.1 mph N/A   Mostly Cloudy
2:55 PM 17.6 °F 1.3 °F 5.0 °F 58% 29.35 in 10.0 mi West 19.6 mph 28.8 mph N/A   Scattered Clouds
3:15 PM 17.6 °F 5.0 °F 6.8 °F 63% 29.35 in 5.0 mi WNW 11.5 mph 25.3 mph N/A   Mostly Cloudy
3:35 PM 19.4 °F 4.1 °F 5.0 °F 54% 29.36 in 7.0 mi West 18.4 mph 26.5 mph N/A   Overcast
3:55 PM 17.6 °F 2.2 °F 5.0 °F 58% 29.35 in 10.0 mi West 17.3 mph 27.6 mph N/A   Scattered Clouds
4:15 PM 17.6 °F 3.7 °F 3.2 °F 53% 29.36 in 10.0 mi West 13.8 mph 20.7 mph N/A   Clear
4:35 PM 17.6 °F 1.7 °F 3.2 °F 53% 29.36 in 10.0 mi West 18.4 mph 26.5 mph N/A   Clear
4:56 PM 17.6 °F 2.7 °F 5.0 °F 58% 29.37 in 10.0 mi West 16.1 mph 23.0 mph N/A   Scattered Clouds
5:15 PM 17.6 °F 2.2 °F 6.8 °F 63% 29.38 in 10.0 mi West 17.3 mph 26.5 mph N/A   Mostly Cloudy
5:35 PM 17.6 °F 4.3 °F 8.6 °F 68% 29.38 in 10.0 mi West 12.7 mph - N/A   Mostly Cloudy
5:55 PM 17.6 °F 1.3 °F 8.6 °F 68% 29.39 in 5.0 mi West 19.6 mph 24.2 mph N/A   Overcast
6:15 PM 15.8 °F 0.9 °F 10.4 °F 79% 29.40 in 0.8 mi WNW 15.0 mph 29.9 mph N/A   Overcast
6:35 PM 15.8 °F 2.7 °F 8.6 °F 73% 29.40 in 2.5 mi West 11.5 mph 19.6 mph N/A   Overcast
6:55 PM 15.8 °F -0.2 °F 12.2 °F 86% 29.41 in 1.5 mi West 17.3 mph 21.9 mph N/A   Overcast
7:15 PM 15.8 °F 2.1 °F 8.6 °F 73% 29.41 in 2.0 mi West 12.7 mph - N/A   Overcast
7:35 PM 15.8 °F 2.7 °F 3.2 °F 58% 29.41 in 5.0 mi WSW 11.5 mph 20.7 mph N/A   Overcast
7:55 PM 14.0 °F -2.5 °F 3.2 °F 62% 29.42 in 9.0 mi WSW 17.3 mph 25.3 mph N/A   Scattered Clouds
8:15 PM 14.0 °F -0.2 °F 1.4 °F 57% 29.43 in 10.0 mi WSW 12.7 mph 18.4 mph N/A   Clear
8:35 PM 14.0 °F -1.4 °F 3.2 °F 62% 29.43 in 10.0 mi WSW 15.0 mph 21.9 mph N/A   Clear
8:55 PM 12.2 °F -3.1 °F 3.2 °F 67% 29.43 in 10.0 mi West 13.8 mph 21.9 mph N/A   Scattered Clouds
9:15 PM 12.2 °F -1.8 °F 3.2 °F 67% 29.43 in 10.0 mi West 11.5 mph - N/A   Overcast
9:35 PM 14.0 °F 1.2 °F 5.0 °F 67% 29.44 in 10.0 mi West 10.4 mph 21.9 mph N/A   Overcast
9:55 PM 12.2 °F -1.0 °F 8.6 °F 85% 29.45 in 0.5 mi WNW 10.4 mph 16.1 mph N/A   Overcast
10:15 PM 12.2 °F -6.7 °F 6.8 °F 79% 29.46 in 0.8 mi West 21.9 mph 28.8 mph N/A   Overcast
10:35 PM 12.2 °F -6.3 °F 3.2 °F 67% 29.47 in 1.8 mi WNW 20.7 mph 26.5 mph N/A   Overcast
10:55 PM 10.4 °F -7.2 °F 3.2 °F 73% 29.48 in 2.0 mi WSW 17.3 mph 23.0 mph N/A   Overcast
11:15 PM 10.4 °F -9.5 °F 3.2 °F 73% 29.49 in 0.2 mi West 23.0 mph 31.1 mph N/A   Overcast
11:35 PM 10.4 °F -6.0 °F 3.2 °F 73% 29.51 in 0.8 mi West 15.0 mph - N/A   Overcast